Location: Newark
(43.6486°N, 79.3853°W)
Time: 23:28:10
(UTC+00:00)

STARLINK-1302 - Pass Details

Date: 08 April 2020
Orbit: 549 x 550 km, 53.0° (Epoch: 27 May)

Event Time Altitude Azimuth Distance (km) Brightness Sun altitude
Exits shadow 07:44:04 22° 356° (N) 1,216 5.7 -29.3°
Drops below altitude 10° 07:47:21 10° 48° (NE) 1,828 7.2 -28.9°
Sets 07:49:59 0° 64° (ENE) 2,722 8.2 -28.6°
